Miscellaneous Local Product
Issued by NWS Hastings, NE

Home | Current Version | Previous Version | Text Only | Print | Product List | Glossary Off
Versions: 1 2 3 4 5 6 7 8 9 10 11 12 13 14 15 16 17 18 19 20 21 22 23 24 25 26 27 28 29 30 31 32 33 34 35 36 37 38 39 40 41 42 43 44 45 46 47 48 49 50

000
AXUS43 KGID 221702
MISGRI

GID CWA HOURLY WEATHER ROUNDUP
NATIONAL WEATHER SERVICE HASTINGS NE
1200 PM CDT WED OCT 22 2014

NOTE: "FAIR" INDICATES FEW OR NO CLOUDS BELOW 12,000 FEET WITH NO
SIGNIFICANT WEATHER AND/OR OBSTRUCTIONS TO VISIBILITY.

...SOUTH CENTRAL NEBRASKA...

CITY           SKY/WX    TMP DP  RH WIND       PRES   REMARKS
GRAND ISLAND   CLOUDY    72  56  57 S17G23    30.01S
HASTINGS       CLOUDY    69  53  56 S14G22    30.02S
KEARNEY        CLOUDY    64  54  68 S13       30.03S
ORD            PTSUNNY   64  53  67 S12       29.99S
YORK           MOSUNNY   72  54  53 S17G24    30.03F
AURORA         PTSUNNY   70  53  53 S13G21    30.02S
LEXINGTON      CLOUDY    64  53  68 S9        30.02S
HOLDREGE       LGT RAIN  63  54  73 SW13G20   30.02S
HEBRON         SUNNY     73  52  47 S16       30.05F

...NEBRASKA PANHANDLE...

CITY           SKY/WX    TMP DP  RH WIND       PRES   REMARKS
CHADRON        MOSUNNY   58  41  53 N8        30.06R
ALLIANCE         N/A     59  38  45 NW13      30.06R
SCOTTSBLUFF    SUNNY     59  36  42 NW14      30.09R
SIDNEY         SUNNY     61  37  41 N18       30.09R

...WESTERN AND NORTH CENTRAL NEBRASKA...

CITY           SKY/WX    TMP DP  RH WIND       PRES   REMARKS
VALENTINE      CLOUDY    52  48  86 NW12      30.00R
AINSWORTH      LGT RAIN  54  48  81 N7        29.97F
ONEILL         CLOUDY    67  56  68 SW15G21   29.98R
BROKEN BOW     CLOUDY    64  52  64 W6        30.01R
IMPERIAL       PTSUNNY   66  49  54 N5        30.04R
NORTH PLATTE   CLOUDY    59  54  83 E6        30.02R
MCCOOK         LGT RAIN  62  51  67 CALM      30.02R

...EASTERN NEBRASKA...

CITY           SKY/WX    TMP DP  RH WIND       PRES   REMARKS
NORFOLK        MOSUNNY   71  52  50 S21G29    29.99F
SO SIOUX CITY  MOSUNNY   67  49  52 S17       30.04F
TEKAMAH        MOSUNNY   68  50  52 S16       30.07R
COLUMBUS       SUNNY     72  52  49 S14G20    30.04S
ALBION         PTSUNNY   69  54  58 S13G20    30.01R
OMAHA EPPLEY   MOSUNNY   67  48  50 S20       30.08F
OFFUTT AFB     SUNNY     67  52  58 SE18      30.08F
MILLARD        SUNNY     65  50  59 SE12      30.08F
LINCOLN        SUNNY     73  53  49 S17       30.06F
NEBRASKA CITY  SUNNY     67  46  47 S14       30.11F
BEATRICE       SUNNY     71  54  53 S12       30.08S
FALLS CITY     LGT RAIN  68  52  56 SE14      30.12F

...NORTHERN KANSAS...

CITY           SKY/WX    TMP DP  RH WIND       PRES   REMARKS
GOODLAND       PTSUNNY   65  48  54 N15G21    30.05R
HILL CITY      CLOUDY    68  55  63 S14       30.03S
NORTON         LGT RAIN  61  54  77 S10       30.01S
PHILLIPSBURG   LGT RAIN  66  57  72 S6        30.03S
SMITH CENTER   MOSUNNY   72  52  49 S20       30.03F
BELOIT         SUNNY     75  55  50 S13G18    30.04S
HAYS           CLOUDY    68  52  56 S12       30.04S
RUSSELL        MOSUNNY   74  53  48 S20G29    30.03S
CONCORDIA      SUNNY     73  57  57 MISG      30.07F
SALINA         SUNNY     75  56  51 S10G25    30.09F
TOPEKA         SUNNY     70  56  61 SE10      30.15F



USA.gov is the U.S. government's official web portal to all federal, state and local government web resources and services.